NW Arkansas Airport, AR

8:35 PM CDT on June 25, 2017 (GMT -0500)
Northwest Arkansas Regional

Weather History for KXNA - January, 2014

Change the Weather History Date:

Monday, January 6, 2014

  Actual Average (KVBT) Record (KVBT)
Temperature  
Mean Temperature 2 °F -  
Max Temperature 9 °F 42 °F 63 °F (1984)
Min Temperature -4 °F 23 °F -4 °F (2014)
Degree Days  
Heating Degree Days 62    
Moisture  
Dew Point -9 °F    
Average Humidity 59    
Maximum Humidity 76    
Minimum Humidity 48    
Precipitation  
Precipitation 0.00 in - - ()
Sea Level Pressure  
Sea Level Pressure 30.60 in    
Wind  
Wind Speed 7 mph (WNW)    
Max Wind Speed 14 mph    
Max Gust Speed 22 mph    
Visibility 10 miles    
Events      
Averages and records for this station are not official NWS values.
T = Trace of Precipitation, MM = Missing Value Source: NWS Daily Summary

Daily Weather History Graph

Daily Weather History Graph

Search for Another Location

Airport or City:

Trip Planner

Search our weather history database for the weather conditions in past years. The results will help you decide how hot, cold, wet, or windy it might be!

Date:

Astronomy

Jan. 06, 2014 Rise Set
Actual Time 7:29 AM CST 5:17 PM CST
Civil Twilight 7:00 AM CST 5:45 PM CST
Nautical Twilight 6:28 AM CST 6:17 PM CST
Astronomical Twilight 5:57 AM CST 6:49 PM CST
Moon 10:56 AM CST (1/6) 11:39 PM CST (1/6)
Length of Visible Light 10h 45m
Length of Day
9h 48m
Waxing Crescent, 35% of the Moon is Illuminated
Jan 6
Waxing Crescent
Jan 7
First Quarter
Jan 15
Full
Jan 23
Last Quarter
Jan 30
New

Hourly Weather History & Observations

Time (CST) Temp. Windchill Dew Point Humidity Pressure Visibility Wind Dir Wind Speed Gust Speed Precip Events Conditions
12:53 AM 3.9 °F -8.2 °F -6.0 °F 64% 30.55 in 10.0 mi NW 6.9 mph - N/A   Clear
1:53 AM 3.0 °F -4.4 °F -6.0 °F 66% 30.56 in 10.0 mi WNW 3.5 mph - N/A   Clear
2:53 AM 1.9 °F -7.6 °F -6.0 °F 69% 30.58 in 10.0 mi WNW 4.6 mph - N/A   Clear
3:53 AM 1.9 °F -12.9 °F -7.1 °F 66% 30.58 in 10.0 mi NW 9.2 mph - N/A   Clear
4:53 AM 1.0 °F -11.7 °F -7.1 °F 69% 30.58 in 10.0 mi WNW 6.9 mph - N/A   Clear
5:53 AM -0.0 °F -17.1 °F -11.9 °F 57% 30.61 in 10.0 mi NW 11.5 mph - N/A   Clear
6:53 AM -2.9 °F -21.6 °F -15.0 °F 56% 30.62 in 10.0 mi NNW 12.7 mph 21.9 mph N/A   Clear
7:53 AM -4.0 °F -20.2 °F -18.0 °F 51% 30.65 in 10.0 mi NNW 9.2 mph - N/A   Clear
8:53 AM -2.0 °F -18.7 °F -17.0 °F 49% 30.68 in 10.0 mi NNW 10.4 mph - N/A   Clear
9:53 AM -0.0 °F -14.2 °F -15.0 °F 49% 30.69 in 10.0 mi NNW 8.1 mph - N/A   Clear
10:53 AM 1.9 °F -15.5 °F -13.0 °F 50% 30.69 in 10.0 mi NW 12.7 mph 19.6 mph N/A   Clear
11:53 AM 3.0 °F -11.5 °F -11.0 °F 52% 30.64 in 10.0 mi West 9.2 mph - N/A   Clear
12:53 PM 5.0 °F -10.8 °F -9.0 °F 52% 30.62 in 10.0 mi West 11.5 mph 18.4 mph N/A   Clear
1:53 PM 7.0 °F -9.8 °F -9.0 °F 48% 30.61 in 10.0 mi West 13.8 mph - N/A   Clear
2:53 PM 8.1 °F -6.2 °F -8.0 °F 48% 30.59 in 10.0 mi WNW 10.4 mph - N/A   Clear
3:53 PM 9.0 °F -6.6 °F -7.1 °F 48% 30.58 in 10.0 mi West 12.7 mph - N/A   Clear
4:53 PM 8.1 °F -2.0 °F -7.1 °F 50% 30.58 in 10.0 mi WNW 5.8 mph - N/A   Clear
5:53 PM 6.1 °F - -6.0 °F 58% 30.57 in 10.0 mi Calm Calm - N/A   Clear
6:53 PM 1.9 °F -5.6 °F -6.0 °F 69% 30.59 in 10.0 mi WSW 3.5 mph - N/A   Clear
7:53 PM 1.9 °F -7.6 °F -7.1 °F 66% 30.60 in 10.0 mi WSW 4.6 mph - N/A   Clear
8:53 PM 3.0 °F - -6.0 °F 66% 30.59 in 10.0 mi Calm Calm - N/A   Clear
9:53 PM -0.0 °F -7.9 °F -6.0 °F 76% 30.59 in 10.0 mi SSW 3.5 mph - N/A   Clear
10:53 PM 1.0 °F -6.7 °F -6.0 °F 72% 30.57 in 10.0 mi SSW 3.5 mph - N/A   Clear
11:53 PM 1.0 °F -8.7 °F -6.0 °F 72% 30.55 in 10.0 mi South 4.6 mph - N/A   Clear